Regional Weather Roundup
Issued by NWS

Home | Current Version | Previous Version | Text Only | Print | Product List | Glossary On
Versions: 1 2 3 4 5 6 7 8 9 10 11 12 13 14 15 16 17 18 19 20 21 22 23 24 25 26 27 28 29 30 31 32 33 34 35 36 37 38 39 40 41 42 43 44 45 46 47 48 49 50
988
ASUS45 KBOU 261807
RWRCO

WEATHER ROUNDUP FOR COLORADO
NATIONAL WEATHER SERVICE DENVER/BOULDER CO
1200 PM MDT TUE JUL 26 2016

NOTE: "FAIR" INDICATES FEW OR NO CLOUDS BELOW 12000 FEET WITH NO
SIGNIFICANT WEATHER AND/OR OBSTRUCTIONS TO VISIBILITY.

COZ001>005-013-030-031-261900-
...NORTHWEST COLORADO...

CITY           SKY/WX    TMP DP  RH WIND       PRES   REMARKS
CRAIG          FAIR      88  33  14 VRB5      30.26F
HAYDEN         FAIR      82  37  20 CALM      30.29F
MEEKER         FAIR      85  40  20 S6        30.28F
MOUNT WERNER   NOT AVBL
STEAMBOAT SPGS FAIR      81  38  21 SE6       30.32F
WALDEN         FAIR      79  30  17 NW9       30.41F
$$

COZ006>008-011-261900-
...WEST CENTRAL VALLEYS...

CITY           SKY/WX    TMP DP  RH WIND       PRES   REMARKS
GRAND JUNCTION FAIR      90  43  19 SE7       30.16F
MONTROSE       FAIR      82  44  26 VRB3      30.27F
EAGLE          SUNNY     73  41  31 CALM      30.35F
RIFLE          FAIR      84  43  23 VRB5      30.23F
DELTA          FAIR      86  45  23 SE6       30.23S
NUCLA          FAIR     N/A N/A N/A SE6       30.31F
$$

COZ017>023-064>068-261900-
...SOUTHWEST COLORADO...

CITY           SKY/WX    TMP DP  RH WIND       PRES   REMARKS
DURANGO        FAIR      78  48  34 VRB5      30.32F
CORTEZ         FAIR      80  47  31 CALM      30.27F
PAGOSA SPRINGS FAIR      77  43  29 S8        30.39F
TELLURIDE      FAIR      70  39  31 W9G18     30.53F
WOLF CREEK PAS LGT RAIN  52  41  66 N6        30.74F
$$

COZ009-010-012-014-032>034-037-058>063-261900-
...CENTRAL COLORADO...

CITY           SKY/WX    TMP DP  RH WIND       PRES   REMARKS
ASPEN          PTSUNNY   75  45  34 N8        30.41S
BUENA VISTA    PTSUNNY   76  35  23 CALM      30.40S
COPPER MTN     CLOUDY    61  30  31 NW13      30.75S
BERTHOUD PASS  FAIR      52  36  54 N20G26    30.77F
COTTONWOOD PAS PTSUNNY   72  30  21 CALM      30.57S
GUNNISON       FAIR      68  43  40 SW3       30.45F
KREMMLING      FAIR      70  34  26 E3        30.41F
LEADVILLE      CLOUDY    63  31  30 NW20      30.57R
SALIDA         FAIR      77  46  32 SW8       30.44S
SUNLIGHT       FAIR      64  43  45 MISG      30.68S
WILKERSON PASS CLOUDY    63  37  39 CALM      30.70S
$$

COZ069>075-261900-
...SAN LUIS VALLEY/SANGRE DE CRISTO MOUNTAINS...

CITY           SKY/WX    TMP DP  RH WIND       PRES   REMARKS
ALAMOSA        FAIR      76  47  35 NW6       30.37F
LA VETA PASS   FAIR      73  36  25 CALM      30.57F
SAGUACHE       FAIR      77  45  31 S6        30.40F
$$

COZ035-036-038>040-261900-
...NORTHERN COLORADO FRONT RANGE...

CITY           SKY/WX    TMP DP  RH WIND       PRES   REMARKS
DENVER INTL AP PTSUNNY   91  39  16 E3        30.16S
DMNS CITY PARK   N/A     85  48  27 SW5       30.17R
AURORA         PTSUNNY   88  41  19 N2        30.18F
FRONT RANGE AP NOT AVBL
ERIE MUNI ARPT FAIR      85  51  31 N8        30.14S
BOULDER MUN AP FAIR      82  46  28 CALM      30.16S
CENTENNIAL     CLOUDY    88  32  13 N9G17     30.20S
BROOMFIELD     CLOUDY    86  46  25 N6        30.19S
LONGMONT       FAIR      82  56  41 E6        30.16S
$$

COZ041-046-047-076>085-087-088-261900-
...PIKES PEAK/PALMER DIVIDE AND SOUTHERN FOOTHILLS...

CITY           SKY/WX    TMP DP  RH WIND       PRES   REMARKS
COLO. SPRINGS  FAIR      83  46  27 SE7       30.25F
A. F. ACADEMY  PTSUNNY   82  48  30 SW9       30.26F
SCHRIEVER AFB  NOT AVBL
ELLICOTT       FAIR     N/A N/A N/A S8        30.23F
FALCON         FAIR      82  50  32 SE7       30.31
FORT CARSON    FAIR      82  49  31 VRB5      30.22F
LIMON          NOT AVBL
MONUMENT HILL  FAIR      84  34  16 W6        30.31F
TRINIDAD       NOT AVBL
$$

COZ042>045-048>051-090-091-261900-
...NORTHEAST COLORADO...

CITY           SKY/WX    TMP DP  RH WIND       PRES   REMARKS
GREELEY ARPT   FAIR      79  59  50 CALM      30.13S
AKRON          FAIR      88  56  33 S9        30.11F
BURLINGTON     FAIR      84  64  50 S20       30.12F
WRAY           FAIR      88  61  40 S12G18    30.07F
STERLING       FAIR      88  59  37 W8        30.06S
HOLYOKE        FAIR      86  64  48 W9        30.07F
FORT MORGAN    FAIR      86  53  32 S9        30.11S
$$

COZ086-089-092>099-261900-
...SOUTHEAST COLORADO...

CITY           SKY/WX    TMP DP  RH WIND       PRES   REMARKS
PUEBLO         FAIR      85  56  37 CALM      30.13F
LA JUNTA       FAIR      89  55  31 CALM      30.10F
LAMAR          FAIR      91  60  35 SE9G18    30.06F
SPRINGFIELD      N/A     89  55  31 S12       30.13F
$$




USA.gov is the U.S. government's official web portal to all federal, state and local government web resources and services.